Location: Il Ritiro
(43.4167°N, 13.1333°E)
Time: 00:29:19
(UTC+00:00)

Meteor 2-10 Rocket - Pass Details

Date: 05 July 2020
Orbit: 734 x 884 km, 81.2° (Epoch: 11 August)

Event Time Altitude Azimuth Distance (km) Brightness Sun altitude
Rises 19:29:09 0° 353° (N) 3,195 7.5 -6.4°
Reaches altitude 10° 19:31:31 10° 357° (N) 2,280 6.6 -6.8°
Maximum altitude 19:36:34 60° 77° (ENE) 878 3.7 -7.5°
Drops below altitude 10° 19:41:46 10° 158° (SSE) 2,345 5.5 -8.2°
Enters shadow 19:42:29 - 159° (SSE) 2,622 5.7 -8.3°
